Content
SEND FEEDBACK

Daily
Averages
Monthly
Summary
United States of America

INWOOD TWP, MICHIGAN


Home > North America > United States > Michigan
Elevation: 779 feet     Latitude: 46 12N     Longitude: 086 30W

WEATHER
 
SELECT A DAY
Number of Records: 84,678;   Date Range: 12/1/04 - 10/22/14
 
SHARE

PRINT THIS DATA

[ ← Previous Day ]
WEATHER ALMANAC - JANUARY 31, 2013
[ Next Day → ]
[ °C ]   °F
Weather ElementAverageHighLow
Temperature15.6 °F17.1 °F (12:56 pm)15.1 °F (4:56 am)
Dewpoint8.6 °F12 °F (1:56 am)5 °F (8:56 pm)
Humidity74 %84 % (1:56 am)64 % (8:56 pm)
Barometer29.65 in29.89 in (11:56 pm)29.39 in (1:56 am)
Wind Speed18.1 mph23 mph (9:56 pm)
Wind Gust34.5 mph (9:56 pm)
Weather ElementAverage
Wind DirectionNNW (345.2 °)

Weather ElementTotal
Precipitation0.21 in
Heating Degree Days48.9 (Base 65)
Averaged from 23 records on January 31, 2013
WEATHER CONDITIONS BREAKOUT
WIND DIRECTION BREAKOUT
WEATHER BY HOUR - JANUARY 31, 2013
[ °C ]   °F
Local TimeTemperatureDewpointHumidityBarometerVisibilityWind DirectionWind SpeedGust SpeedPrecipitationEventsConditions
1:56 AM16.0 °F12.0 °F84 %29.39 inNorth (360°)18.4 mph24.2 mph0.02 in
2:56 AM16.0 °F10.0 °F77 %29.41 inNorth (360°)21.9 mph
3:56 AM16.0 °F9.0 °F74 %29.43 inNorth (350°)21.9 mph26.5 mph0.01 in
4:56 AM15.1 °F10.0 °F80 %29.44 inNorth (360°)21.9 mph28.8 mph0.01 in
5:56 AM15.1 °F10.0 °F80 %29.47 inNorth (360°)18.4 mph24.2 mph0.02 in
6:56 AM15.1 °F8.1 °F74 %29.49 inNorth (350°)17.3 mph
7:56 AM15.1 °F7.0 °F70 %29.52 inNorth (360°)17.3 mph25.3 mph0.01 in
8:56 AM15.1 °F7.0 °F70 %29.55 inNNW (340°)17.3 mph
9:56 AM16.0 °F8.1 °F71 %29.58 inNorth (350°)21.9 mph26.5 mph
10:56 AM15.1 °F9.0 °F77 %29.61 inNorth (360°)17.3 mph0.01 in
11:56 AM16.0 °F9.0 °F74 %29.64 inNorth (350°)15.0 mph
12:56 PM17.1 °F9.0 °F71 %29.65 inNorth (360°)15.0 mph24.2 mph0.01 in
1:56 PM17.1 °F9.0 °F71 %29.67 inNNW (340°)16.1 mph0.01 in
2:56 PM17.1 °F9.0 °F71 %29.69 inNorth (350°)15.0 mph0.01 in
3:56 PM16.0 °F10.9 °F81 %29.73 inNNW (340°)15.0 mph29.9 mph0.02 in
4:56 PM16.0 °F7.0 °F68 %29.75 inNW (310°)18.4 mph25.3 mph0.01 in
5:56 PM15.1 °F7.0 °F70 %29.79 inNW (310°)17.3 mph28.8 mph
6:56 PM15.1 °F9.0 °F77 %29.81 inNNW (340°)20.7 mph25.3 mph0.02 in
7:56 PM15.1 °F10.0 °F80 %29.83 inNNW (340°)15.0 mph27.6 mph0.02 in
8:56 PM15.1 °F5.0 °F64 %29.85 inNNW (340°)18.4 mph24.2 mph0.01 in
9:56 PM15.1 °F9.0 °F77 %29.87 inNNW (340°)23.0 mph34.5 mph
10:56 PM15.1 °F7.0 °F70 %29.88 inNNW (340°)17.3 mph32.2 mph
11:56 PM15.1 °F7.0 °F70 %29.89 inNNW (330°)16.1 mph28.8 mph0.02 in
Hourly data recorded from KP53, located miles away from Inwood Twp, Michigan







STORIES FROM OUR PARTNERS